Darstellungsparameter: Aktuell verwendete Einstellungen:
Skalierung der Graphiken ... ?
xyx+y,   Skalierungsfaktor:      Skalierung: Modus: x, Faktor: 1
Darstellungszeitraum ... ?
Vom - - bis: - -   Zeitraum: 21.03.2019 - 20.04.2019
Min/Max/Avg-Anzeige ... ?
Zeige MMA aktuell
Zeige MMA Monat
Zeige MMA alles
Zeige --A aktuell
Zeige --A Monat
Zeige --A alles
Keine MMA-Anzeige
MMA:
Average (ber die Originaldaten)
MMA-Basis: 21.03.2019 - 20.04.2019
Quicknavigation für Darstellung... ?
Tage:      1T, 2T, 3T, 5T -1T -2T -3T -5T +1T +2T +3T +5T
Wochen: 1W, 2W, 3W -1W -2W -3W +1W +2W +3W
Monate: 1M, 3M, 6M -1M -3M -6M +1M +3M +6M
Jahre:    1J, 3J, 5J, 10J -1J -3J -5J -10J +1J +3J +5J +10J
Nutze für die Darstellung ... ?
Originaldaten oder ...
Mittelwerte Minima Maxima auf...
Stundenbasis Tagesbasis Wochenbasis
Monatsbasis Jahresbasis      Datenbasis: Mittelwerte auf Stundenbasis
Darstellen als:
Statistik (Auto) Statistik J:M      Darstellung:
Zur Graphik,    zurück zur Übersicht aller Sensoren.
 
Tabellarische Datenbersicht: ?
 
Sensor: Nr:Datum:Temp:Abs-Feuchte:Windchill:Wind:
Aussen-T/F 1 21-03-2019 00:00:00 3.31667 C 5.39 g/m*3 3.32 C 0.13333 km/h
2 21-03-2019 01:00:00 2.55 C 5.14 g/m*3 2.55 C 0 km/h
3 21-03-2019 02:00:00 1.81667 C 4.99 g/m*3 1.82 C 0 km/h
4 21-03-2019 03:00:00 1.30833 C 4.87 g/m*3 1.31 C 0 km/h
5 21-03-2019 04:00:00 0.99167 C 4.82 g/m*3 0.99 C 0 km/h
6 21-03-2019 05:00:00 0.61667 C 4.72 g/m*3 0.62 C 0 km/h
7 21-03-2019 06:00:00 0.33333 C 4.66 g/m*3 0.33 C 0 km/h
8 21-03-2019 07:00:00 0.6 C 4.76 g/m*3 0.6 C 0 km/h
9 21-03-2019 08:00:00 1.24167 C 5.01 g/m*3 1.24 C 0 km/h
10 21-03-2019 09:00:00 2.50833 C 5.46 g/m*3 2.51 C 0 km/h
11 21-03-2019 10:00:00 5.54167 C 6.37 g/m*3 5.54 C 0.13333 km/h
12 21-03-2019 11:00:00 9.275 C 6.78 g/m*3 9.28 C 0.26667 km/h
13 21-03-2019 12:00:00 12.99167 C 6.11 g/m*3 12.99 C 7.525 km/h
14 21-03-2019 13:00:00 15.43333 C 5.73 g/m*3 15.43 C 4.95833 km/h
15 21-03-2019 14:00:00 16.23333 C 5.45 g/m*3 16.23 C 5.89167 km/h
16 21-03-2019 15:00:00 16.43333 C 5.45 g/m*3 16.43 C 5.625 km/h
17 21-03-2019 16:00:00 17.625 C 5.67 g/m*3 17.63 C 7.775 km/h
18 21-03-2019 17:00:00 18.01667 C 5.84 g/m*3 18.02 C 6.575 km/h
19 21-03-2019 18:00:00 14.68333 C 6.62 g/m*3 14.68 C 5.2 km/h
20 21-03-2019 19:00:00 10.96667 C 6.42 g/m*3 10.97 C 3.33333 km/h
21 21-03-2019 20:00:00 9.20833 C 6.41 g/m*3 9.21 C 0.66667 km/h
22 21-03-2019 21:00:00 7.65 C 6.05 g/m*3 7.65 C 0 km/h
23 21-03-2019 22:00:00 6.15833 C 5.77 g/m*3 6.16 C 0 km/h
24 21-03-2019 23:00:00 5.26667 C 5.67 g/m*3 5.27 C 0 km/h
25 22-03-2019 00:00:00 4.425 C 5.54 g/m*3 4.43 C 0 km/h
Sensor: Nr:Datum:Temp:Abs-Feuchte:Windchill:Wind:
Aussen-T/F 26 22-03-2019 01:00:00 3.69167 C 5.43 g/m*3 3.69 C 0 km/h
27 22-03-2019 02:00:00 3.03333 C 5.27 g/m*3 3.03 C 0 km/h
28 22-03-2019 03:00:00 2.20833 C 5.08 g/m*3 2.21 C 0 km/h
29 22-03-2019 04:00:00 1.74167 C 5.02 g/m*3 1.74 C 0 km/h
30 22-03-2019 05:00:00 1.53333 C 5 g/m*3 1.53 C 0 km/h
31 22-03-2019 06:00:00 1.06667 C 4.86 g/m*3 1.07 C 0 km/h
32 22-03-2019 07:00:00 1.24167 C 4.96 g/m*3 1.24 C 0 km/h
33 22-03-2019 08:00:00 1.95833 C 5.26 g/m*3 1.96 C 0 km/h
34 22-03-2019 09:00:00 3.70833 C 5.94 g/m*3 3.71 C 0 km/h
35 22-03-2019 10:00:00 7.06667 C 7.02 g/m*3 7.07 C 0 km/h
36 22-03-2019 11:00:00 11.70833 C 7.63 g/m*3 11.71 C 0 km/h
37 22-03-2019 12:00:00 15.65 C 7.08 g/m*3 15.65 C 3.225 km/h
38 22-03-2019 13:00:00 18.11667 C 6.47 g/m*3 18.12 C 10.20833 km/h
39 22-03-2019 14:00:00 19.29167 C 5.97 g/m*3 19.29 C 7.38333 km/h
40 22-03-2019 15:00:00 19.26667 C 6.4 g/m*3 19.27 C 9.55 km/h
41 22-03-2019 16:00:00 19.83333 C 6.46 g/m*3 19.83 C 5.75833 km/h
42 22-03-2019 17:00:00 20.95833 C 6.47 g/m*3 20.96 C 6.16667 km/h
43 22-03-2019 18:00:00 16.7 C 7.19 g/m*3 16.7 C 4.53333 km/h
44 22-03-2019 19:00:00 12.225 C 6.86 g/m*3 12.23 C 5.46667 km/h
45 22-03-2019 20:00:00 10.825 C 6.74 g/m*3 10.83 C 4.66667 km/h
46 22-03-2019 21:00:00 9.1 C 6.45 g/m*3 9.1 C 0.4 km/h
47 22-03-2019 22:00:00 7.775 C 6.35 g/m*3 7.78 C 1.06667 km/h
48 22-03-2019 23:00:00 6.66667 C 6.08 g/m*3 6.67 C 0 km/h
49 23-03-2019 00:00:00 5.5 C 5.83 g/m*3 5.5 C 0 km/h
50 23-03-2019 01:00:00 4.74167 C 5.71 g/m*3 4.74 C 0 km/h
Sensor: Nr:Datum:Temp:Abs-Feuchte:Windchill:Wind:
Aussen-T/F 51 23-03-2019 02:00:00 4.05 C 5.62 g/m*3 4.05 C 0 km/h
52 23-03-2019 03:00:00 3.69167 C 5.54 g/m*3 3.69 C 0 km/h
53 23-03-2019 04:00:00 3.425 C 5.51 g/m*3 3.43 C 0 km/h
54 23-03-2019 05:00:00 3.28333 C 5.44 g/m*3 3.28 C 0 km/h
55 23-03-2019 06:00:00 2.525 C 5.25 g/m*3 2.53 C 0 km/h
56 23-03-2019 07:00:00 4.06667 C 6.02 g/m*3 4.07 C 3.08333 km/h
57 23-03-2019 08:00:00 6.20833 C 6.99 g/m*3 6.21 C 3.075 km/h
58 23-03-2019 09:00:00 6.63333 C 7.14 g/m*3 6.63 C 0 km/h
59 23-03-2019 10:00:00 7.18333 C 7.35 g/m*3 6.31 C 5.75 km/h
60 23-03-2019 11:00:00 7.53333 C 7.43 g/m*3 6.67 C 5.89167 km/h
61 23-03-2019 12:00:00 8.125 C 7.5 g/m*3 7.23 C 6.3 km/h
62 23-03-2019 13:00:00 8.775 C 7.5 g/m*3 7.74 C 7.25833 km/h
63 23-03-2019 14:00:00 9.45 C 7.39 g/m*3 8.03 C 9.7 km/h
64 23-03-2019 15:00:00 10.08333 C 7.32 g/m*3 8.9 C 9.025 km/h
65 23-03-2019 16:00:00 10.425 C 7.21 g/m*3 9.29 C 9.15833 km/h
66 23-03-2019 17:00:00 10.425 C 7.16 g/m*3 9.64 C 7.375 km/h
67 23-03-2019 18:00:00 9.175 C 6.9 g/m*3 9.18 C 2.4 km/h
68 23-03-2019 19:00:00 6.80833 C 6.51 g/m*3 6.81 C 3.2 km/h
69 23-03-2019 20:00:00 5.38333 C 6.19 g/m*3 5.38 C 0.13333 km/h
70 23-03-2019 21:00:00 4.33333 C 5.93 g/m*3 4.33 C 0 km/h
71 23-03-2019 22:00:00 3.55833 C 5.74 g/m*3 3.56 C 0 km/h
72 23-03-2019 23:00:00 3.075 C 5.62 g/m*3 3.08 C 0 km/h
73 24-03-2019 00:00:00 2.4 C 5.39 g/m*3 2.4 C 0 km/h
74 24-03-2019 01:00:00 1.9 C 5.23 g/m*3 1.9 C 0 km/h
75 24-03-2019 02:00:00 1.425 C 5.08 g/m*3 1.43 C 0 km/h
Sensor: Nr:Datum:Temp:Abs-Feuchte:Windchill:Wind:
Aussen-T/F 76 24-03-2019 03:00:00 0.96667 C 4.92 g/m*3 0.97 C 0 km/h
77 24-03-2019 04:00:00 0.89167 C 4.94 g/m*3 0.89 C 0 km/h
78 24-03-2019 05:00:00 1.725 C 5.24 g/m*3 1.73 C 0.4 km/h
79 24-03-2019 07:00:00 2.78182 C 5.62 g/m*3 2.78 C 0.29091 km/h
80 24-03-2019 08:00:00 3.66667 C 6.02 g/m*3 3.67 C 0.13333 km/h
81 24-03-2019 09:00:00 4.85 C 6.44 g/m*3 4.85 C 2.53333 km/h
82 24-03-2019 10:00:00 6.875 C 7.1 g/m*3 6.88 C 3.46667 km/h
83 24-03-2019 11:00:00 9.54167 C 7.8 g/m*3 9.54 C 4.81667 km/h
84 24-03-2019 12:00:00 11.74167 C 8.07 g/m*3 11.74 C 9.53333 km/h
85 24-03-2019 13:00:00 10.88333 C 8.07 g/m*3 9.16 C 13.7 km/h
86 24-03-2019 14:00:00 10.64167 C 8.08 g/m*3 9.95 C 7.10833 km/h
87 24-03-2019 15:00:00 11.09167 C 7.88 g/m*3 11.09 C 8.74167 km/h
88 24-03-2019 16:00:00 12.03333 C 7.65 g/m*3 12.03 C 9.80833 km/h
89 24-03-2019 17:00:00 12.28333 C 7.05 g/m*3 12.28 C 10.625 km/h
90 24-03-2019 18:00:00 11.30833 C 6.37 g/m*3 11.31 C 8.6 km/h
91 24-03-2019 19:00:00 9.075 C 5.77 g/m*3 8.47 C 5.775 km/h
92 24-03-2019 20:00:00 7.18333 C 5.55 g/m*3 7.18 C 4.4 km/h
93 24-03-2019 21:00:00 5.59167 C 5.39 g/m*3 5.59 C 0.93333 km/h
94 24-03-2019 22:00:00 4.23333 C 5.21 g/m*3 4.23 C 0.8 km/h
95 24-03-2019 23:00:00 3.56667 C 5.11 g/m*3 3.57 C 2.53333 km/h
96 25-03-2019 00:00:00 3.35 C 5.02 g/m*3 3.35 C 2.93333 km/h
97 25-03-2019 01:00:00 1.875 C 4.76 g/m*3 1.88 C 0.53333 km/h
98 25-03-2019 02:00:00 1.89167 C 4.9 g/m*3 0.46 C 5.225 km/h
99 25-03-2019 03:00:00 2.29167 C 4.99 g/m*3 0.45 C 6.43333 km/h
100 25-03-2019 04:00:00 2.85833 C 5.07 g/m*3 0.76 C 7.50833 km/h
Sensor: Nr:Datum:Temp:Abs-Feuchte:Windchill:Wind:
Aussen-T/F 101 25-03-2019 05:00:00 3.675 C 5.13 g/m*3 0.61 C 12.23333 km/h
102 25-03-2019 06:00:00 3.74167 C 5.19 g/m*3 1.46 C 8.75 km/h
103 25-03-2019 07:00:00 4.38333 C 5.53 g/m*3 2.15 C 9.01667 km/h
104 25-03-2019 08:00:00 4.56667 C 6.01 g/m*3 2.83 C 7.25 km/h
105 25-03-2019 09:00:00 6.15 C 6.25 g/m*3 3.41 C 13.43333 km/h
106 25-03-2019 10:00:00 7.41667 C 5.92 g/m*3 4.58 C 16.1 km/h
107 25-03-2019 11:00:00 7.375 C 6.01 g/m*3 4.62 C 15.43333 km/h
108 25-03-2019 12:00:00 7.725 C 6.31 g/m*3 4.41 C 20.90833 km/h
109 25-03-2019 13:00:00 7.55 C 6.48 g/m*3 4.34 C 19.45 km/h
110 25-03-2019 14:00:00 7.65833 C 6.21 g/m*3 4.6 C 18.38333 km/h
111 25-03-2019 15:00:00 7.18333 C 6.57 g/m*3 4.89 C 12.08333 km/h
112 25-03-2019 16:00:00 7.29167 C 6.64 g/m*3 5.02 C 12.08333 km/h
113 25-03-2019 17:00:00 5.71667 C 6.41 g/m*3 3.83 C 8.58333 km/h
114 25-03-2019 18:00:00 5.3 C 6.46 g/m*3 5.3 C 3.20833 km/h
115 25-03-2019 19:00:00 5.04167 C 6.39 g/m*3 5.04 C 2.53333 km/h
116 25-03-2019 20:00:00 5.1 C 6.48 g/m*3 5.1 C 2.26667 km/h
117 25-03-2019 21:00:00 5.24167 C 6.56 g/m*3 5.24 C 4.29167 km/h
118 25-03-2019 22:00:00 5.15833 C 6.39 g/m*3 5.16 C 4.675 km/h
119 25-03-2019 23:00:00 4.65 C 6.2 g/m*3 4.65 C 1.06667 km/h
120 26-03-2019 00:00:00 4.49167 C 6.21 g/m*3 4.49 C 2 km/h
121 26-03-2019 01:00:00 4.525 C 6.19 g/m*3 4.53 C 0.53333 km/h
122 26-03-2019 02:00:00 4.375 C 6.19 g/m*3 4.38 C 0.13333 km/h
123 26-03-2019 03:00:00 4.64167 C 6.3 g/m*3 4.64 C 0.66667 km/h
124 26-03-2019 04:00:00 4.91667 C 6.42 g/m*3 4.92 C 1.33333 km/h
125 26-03-2019 05:00:00 5.00833 C 6.37 g/m*3 5.01 C 2.93333 km/h
Sensor: Nr:Datum:Temp:Abs-Feuchte:Windchill:Wind:
Aussen-T/F 126 26-03-2019 06:00:00 4.99167 C 6.23 g/m*3 4.99 C 2.94167 km/h
127 26-03-2019 07:00:00 5.06667 C 6.15 g/m*3 5.07 C 2.13333 km/h
128 26-03-2019 08:00:00 5.55 C 6 g/m*3 5.55 C 4.95 km/h
129 26-03-2019 09:00:00 6.225 C 5.91 g/m*3 4.69 C 7.53333 km/h
130 26-03-2019 10:00:00 6.98333 C 5.91 g/m*3 4.78 C 11.29167 km/h
131 26-03-2019 11:00:00 7.26667 C 5.66 g/m*3 5.69 C 8.46667 km/h
132 26-03-2019 12:00:00 8.46667 C 5.93 g/m*3 6.59 C 11.16667 km/h
133 26-03-2019 13:00:00 8.85 C 5.76 g/m*3 7.15 C 10.625 km/h
134 26-03-2019 14:00:00 8.875 C 5.68 g/m*3 6.88 C 12.49167 km/h
135 26-03-2019 15:00:00 9.03333 C 5.88 g/m*3 7.8 C 8.34167 km/h
136 26-03-2019 16:00:00 9.49167 C 5.89 g/m*3 7.62 C 12.5 km/h
137 26-03-2019 17:00:00 8.43333 C 6.05 g/m*3 7.16 C 8.05 km/h
138 26-03-2019 18:00:00 8.11667 C 6.16 g/m*3 7.38 C 5.75833 km/h
139 26-03-2019 19:00:00 7.59167 C 6.33 g/m*3 7.59 C 0.8 km/h
140 26-03-2019 20:00:00 7.075 C 6.4 g/m*3 7.08 C 0.4 km/h
141 26-03-2019 21:00:00 6.81667 C 6.44 g/m*3 6.82 C 0.13333 km/h
142 26-03-2019 22:00:00 6.51667 C 6.48 g/m*3 6.52 C 0 km/h
143 26-03-2019 23:00:00 6.24167 C 6.42 g/m*3 6.24 C 0.26667 km/h
144 27-03-2019 00:00:00 6.10833 C 6.4 g/m*3 6.11 C 0.8 km/h
145 27-03-2019 01:00:00 5.575 C 6.29 g/m*3 5.58 C 0 km/h
146 27-03-2019 02:00:00 5.25 C 6.25 g/m*3 5.25 C 0 km/h
147 27-03-2019 03:00:00 4.9 C 6.12 g/m*3 4.9 C 0 km/h
148 27-03-2019 04:00:00 4.05833 C 5.81 g/m*3 4.06 C 0.13333 km/h
149 27-03-2019 05:00:00 2.91667 C 5.43 g/m*3 2.92 C 0.53333 km/h
150 27-03-2019 06:00:00 2.1 C 5.23 g/m*3 2.1 C 0 km/h
Sensor: Nr:Datum:Temp:Abs-Feuchte:Windchill:Wind:
Aussen-T/F 151 27-03-2019 07:00:00 2.6 C 5.47 g/m*3 2.6 C 0.26667 km/h
152 27-03-2019 08:00:00 3.88333 C 5.97 g/m*3 3.88 C 0.53333 km/h
153 27-03-2019 09:00:00 5.8 C 6.58 g/m*3 5.8 C 1.6 km/h
154 27-03-2019 10:00:00 8.16667 C 7 g/m*3 8.17 C 2.93333 km/h
155 27-03-2019 11:00:00 9.13333 C 6.8 g/m*3 8.58 C 5.625 km/h
156 27-03-2019 12:00:00 10.05 C 6.55 g/m*3 9.49 C 6.16667 km/h
157 27-03-2019 13:00:00 10.8 C 6.28 g/m*3 9.64 C 9.68333 km/h
158 27-03-2019 14:00:00 11.05 C 6.13 g/m*3 11.05 C 6.44167 km/h
159 27-03-2019 15:00:00 11.10833 C 6.07 g/m*3 11.11 C 7.51667 km/h
160 27-03-2019 16:00:00 11.23333 C 6.02 g/m*3 11.23 C 6.3 km/h
161 27-03-2019 17:00:00 10.975 C 5.99 g/m*3 10.77 C 5.33333 km/h
162 27-03-2019 18:00:00 9.83333 C 6.38 g/m*3 9.83 C 0.8 km/h
163 27-03-2019 19:00:00 7.64167 C 6.24 g/m*3 7.64 C 3.46667 km/h
164 27-03-2019 20:00:00 6.49167 C 6.12 g/m*3 6.49 C 3.86667 km/h
165 27-03-2019 21:00:00 5.69167 C 6.04 g/m*3 5.69 C 1.33333 km/h
166 27-03-2019 22:00:00 4.725 C 5.79 g/m*3 4.72 C 0.4 km/h
167 27-03-2019 23:00:00 3.475 C 5.52 g/m*3 3.48 C 0 km/h
168 28-03-2019 00:00:00 2.925 C 5.43 g/m*3 2.93 C 0.53333 km/h
169 28-03-2019 01:00:00 2.475 C 5.3 g/m*3 2.48 C 0 km/h
170 28-03-2019 02:00:00 1.975 C 5.16 g/m*3 1.98 C 0 km/h
171 28-03-2019 03:00:00 1.60833 C 5.07 g/m*3 1.61 C 0 km/h
172 28-03-2019 04:00:00 1.375 C 5.01 g/m*3 1.38 C 0.13333 km/h
173 28-03-2019 05:00:00 1.13333 C 4.95 g/m*3 1.13 C 0 km/h
174 28-03-2019 06:00:00 1.59167 C 5.13 g/m*3 1.59 C 0 km/h
175 28-03-2019 07:00:00 2.11667 C 5.32 g/m*3 2.12 C 0.26667 km/h
Sensor: Nr:Datum:Temp:Abs-Feuchte:Windchill:Wind:
Aussen-T/F 176 28-03-2019 08:00:00 2.79167 C 5.55 g/m*3 2.79 C 1.33333 km/h
177 28-03-2019 09:00:00 4.425 C 6.07 g/m*3 4.43 C 2.66667 km/h
178 28-03-2019 10:00:00 7.30833 C 6.69 g/m*3 7.31 C 0.4 km/h
179 28-03-2019 11:00:00 10.325 C 7.27 g/m*3 10.33 C 3.475 km/h
180 28-03-2019 12:00:00 12.53333 C 7.36 g/m*3 12.53 C 8.33333 km/h
181 28-03-2019 13:00:00 13.21667 C 7.57 g/m*3 13.22 C 8.33333 km/h
182 28-03-2019 14:00:00 13.5 C 7.52 g/m*3 13.5 C 10.75833 km/h
183 28-03-2019 15:00:00 13.4 C 7.4 g/m*3 13.4 C 8.60833 km/h
184 28-03-2019 16:00:00 13.45833 C 7.32 g/m*3 13.46 C 9.01667 km/h
185 28-03-2019 17:00:00 13.19167 C 7.32 g/m*3 13.19 C 6.70833 km/h
186 28-03-2019 18:00:00 12.16667 C 7.58 g/m*3 12.17 C 2.53333 km/h
187 28-03-2019 19:00:00 10.36667 C 7.52 g/m*3 10.37 C 0.93333 km/h
188 28-03-2019 20:00:00 10.23333 C 7.49 g/m*3 10.23 C 0.53333 km/h
189 28-03-2019 21:00:00 9.50833 C 7.27 g/m*3 9.51 C 0 km/h
190 28-03-2019 22:00:00 7.88333 C 6.88 g/m*3 7.88 C 0.53333 km/h
191 28-03-2019 23:00:00 6.3 C 6.5 g/m*3 6.3 C 0 km/h
192 29-03-2019 00:00:00 5.28333 C 6.27 g/m*3 5.28 C 0 km/h
193 29-03-2019 01:00:00 4.35 C 6 g/m*3 4.35 C 0 km/h
194 29-03-2019 02:00:00 3.85833 C 5.89 g/m*3 3.86 C 0 km/h
195 29-03-2019 03:00:00 3.05833 C 5.61 g/m*3 3.06 C 0 km/h
196 29-03-2019 04:00:00 2.89167 C 5.61 g/m*3 2.89 C 0 km/h
197 29-03-2019 05:00:00 2.18333 C 5.34 g/m*3 2.18 C 0 km/h
198 29-03-2019 06:00:00 2.075 C 5.31 g/m*3 2.08 C 0 km/h
199 29-03-2019 07:00:00 2.175 C 5.39 g/m*3 2.17 C 0 km/h
200 29-03-2019 08:00:00 2.93333 C 5.69 g/m*3 2.93 C 0 km/h
Sensor: Nr:Datum:Temp:Abs-Feuchte:Windchill:Wind:
Aussen-T/F 201 29-03-2019 09:00:00 4.94167 C 6.56 g/m*3 4.94 C 0 km/h
202 29-03-2019 10:00:00 8.09167 C 7.98 g/m*3 8.09 C 0.53333 km/h
203 29-03-2019 11:00:00 12.48333 C 8.54 g/m*3 12.48 C 9.79167 km/h
204 29-03-2019 12:00:00 14.475 C 8.29 g/m*3 14.48 C 8.46667 km/h
205 29-03-2019 13:00:00 15.93333 C 8.14 g/m*3 15.93 C 10.225 km/h
206 29-03-2019 14:00:00 16.83333 C 7.91 g/m*3 16.83 C 10.89167 km/h
207 29-03-2019 15:00:00 17.475 C 7.8 g/m*3 17.48 C 9.68333 km/h
208 29-03-2019 16:00:00 18.41667 C 7.82 g/m*3 18.42 C 8.71667 km/h
209 29-03-2019 17:00:00 18.94167 C 7.7 g/m*3 18.94 C 4.53333 km/h
210 29-03-2019 18:00:00 16.95833 C 7.77 g/m*3 16.96 C 2.675 km/h
211 29-03-2019 19:00:00 11.55 C 7.26 g/m*3 11.55 C 5.46667 km/h
212 29-03-2019 20:00:00 9.86667 C 7.1 g/m*3 9.87 C 1.6 km/h
213 29-03-2019 21:00:00 8.10833 C 6.77 g/m*3 8.11 C 0 km/h
214 29-03-2019 22:00:00 6.7 C 6.42 g/m*3 6.7 C 0 km/h
215 29-03-2019 23:00:00 5.575 C 6.15 g/m*3 5.58 C 0 km/h
216 30-03-2019 00:00:00 4.59167 C 5.94 g/m*3 4.59 C 0 km/h
217 30-03-2019 01:00:00 4 C 5.82 g/m*3 4 C 0 km/h
218 30-03-2019 02:00:00 3.45 C 5.66 g/m*3 3.45 C 0 km/h
219 30-03-2019 03:00:00 2.8 C 5.49 g/m*3 2.8 C 0 km/h
220 30-03-2019 04:00:00 2.48333 C 5.4 g/m*3 2.48 C 0 km/h
221 30-03-2019 05:00:00 1.875 C 5.19 g/m*3 1.88 C 0 km/h
222 30-03-2019 06:00:00 1.73333 C 5.18 g/m*3 1.73 C 0 km/h
223 30-03-2019 07:00:00 2.11667 C 5.36 g/m*3 2.12 C 0.13333 km/h
224 30-03-2019 08:00:00 3.35833 C 5.85 g/m*3 3.36 C 0.26667 km/h
225 30-03-2019 09:00:00 5.45 C 6.77 g/m*3 5.45 C 0 km/h
Sensor: Nr:Datum:Temp:Abs-Feuchte:Windchill:Wind:
Aussen-T/F 226 30-03-2019 10:00:00 8.84167 C 7.93 g/m*3 8.84 C 0 km/h
227 30-03-2019 11:00:00 13.74167 C 8.36 g/m*3 13.74 C 5.225 km/h
228 30-03-2019 12:00:00 17.6 C 7.5 g/m*3 17.6 C 14.76667 km/h
229 30-03-2019 13:00:00 19.30833 C 6.85 g/m*3 19.31 C 14.76667 km/h
230 30-03-2019 14:00:00 19.93333 C 6.57 g/m*3 19.93 C 16.63333 km/h
231 30-03-2019 15:00:00 20.41667 C 6.55 g/m*3 20.42 C 13.96667 km/h
232 30-03-2019 16:00:00 20.54167 C 6.94 g/m*3 20.54 C 8.85 km/h
233 30-03-2019 17:00:00 19.46667 C 7.22 g/m*3 19.47 C 4.29167 km/h
234 30-03-2019 18:00:00 17.30833 C 7.89 g/m*3 17.31 C 1.86667 km/h
235 30-03-2019 19:00:00 14.88333 C 7.55 g/m*3 14.88 C 0.8 km/h
236 30-03-2019 20:00:00 13.79167 C 7.66 g/m*3 13.79 C 2.66667 km/h
237 30-03-2019 21:00:00 12.4 C 7.6 g/m*3 12.4 C 0.93333 km/h
238 30-03-2019 22:00:00 11.125 C 7.57 g/m*3 11.13 C 0 km/h
239 30-03-2019 23:00:00 10.80833 C 7.47 g/m*3 10.81 C 0 km/h
240 31-03-2019 00:00:00 9.55833 C 7.04 g/m*3 9.56 C 0.4 km/h
241 31-03-2019 01:00:00 8.38333 C 6.93 g/m*3 8.38 C 0 km/h
242 31-03-2019 02:00:00 7.30833 C 6.64 g/m*3 7.31 C 0.4 km/h
243 31-03-2019 04:00:00 6.45 C 6.42 g/m*3 6.45 C 0.13333 km/h
244 31-03-2019 05:00:00 5.15 C 6.1 g/m*3 5.15 C 0.13333 km/h
245 31-03-2019 06:00:00 4.95 C 6.13 g/m*3 4.95 C 0.4 km/h
246 31-03-2019 07:00:00 4.78333 C 6.08 g/m*3 4.78 C 0.4 km/h
247 31-03-2019 08:00:00 4.70833 C 6.13 g/m*3 4.71 C 0 km/h
248 31-03-2019 09:00:00 5.50833 C 6.53 g/m*3 5.51 C 0 km/h
249 31-03-2019 10:00:00 8 C 7.54 g/m*3 8 C 0 km/h
250 31-03-2019 11:00:00 11.51667 C 8.13 g/m*3 11.52 C 0.26667 km/h
Sensor: Nr:Datum:Temp:Abs-Feuchte:Windchill:Wind:
Aussen-T/F 251 31-03-2019 12:00:00 14.56667 C 8.23 g/m*3 14.57 C 3.2 km/h
252 31-03-2019 13:00:00 16.74167 C 7.93 g/m*3 16.74 C 5.76667 km/h
253 31-03-2019 14:00:00 18.34167 C 7.9 g/m*3 18.34 C 7.91667 km/h
254 31-03-2019 15:00:00 18.825 C 7.77 g/m*3 18.83 C 9.81667 km/h
255 31-03-2019 16:00:00 15.925 C 9.88 g/m*3 15.93 C 6.96667 km/h
256 31-03-2019 17:00:00 14.2 C 10.95 g/m*3 14.2 C 1.86667 km/h
257 31-03-2019 18:00:00 15.28333 C 9.93 g/m*3 15.28 C 4.95 km/h
258 31-03-2019 19:00:00 12.74167 C 9 g/m*3 12.74 C 2.93333 km/h
259 31-03-2019 20:00:00 10.11667 C 8.24 g/m*3 10.12 C 4.4 km/h
260 31-03-2019 21:00:00 8.95 C 7.72 g/m*3 8.95 C 2.13333 km/h
261 31-03-2019 22:00:00 8.04167 C 7.27 g/m*3 8.04 C 2 km/h
262 31-03-2019 23:00:00 7.21667 C 6.92 g/m*3 7.22 C 0.8 km/h
263 01-04-2019 00:00:00 6.36667 C 6.62 g/m*3 6.37 C 0 km/h
264 01-04-2019 01:00:00 5.74167 C 6.37 g/m*3 5.74 C 0.26667 km/h
265 01-04-2019 02:00:00 5.25 C 6.22 g/m*3 5.25 C 1.86667 km/h
266 01-04-2019 03:00:00 4.69167 C 6.04 g/m*3 4.69 C 2.8 km/h
267 01-04-2019 04:00:00 4.31667 C 5.9 g/m*3 4.32 C 1.73333 km/h
268 01-04-2019 05:00:00 3.975 C 5.78 g/m*3 3.98 C 0.8 km/h
269 01-04-2019 06:00:00 3.56667 C 5.67 g/m*3 3.57 C 0.4 km/h
270 01-04-2019 07:00:00 3.15 C 5.54 g/m*3 3.15 C 0.8 km/h
271 01-04-2019 08:00:00 3.16667 C 5.61 g/m*3 3.17 C 0 km/h
272 01-04-2019 09:00:00 4.29167 C 6.01 g/m*3 4.29 C 0.66667 km/h
273 01-04-2019 10:00:00 6.65 C 6.32 g/m*3 5.52 C 6.31667 km/h
274 01-04-2019 11:00:00 9.53333 C 6.5 g/m*3 8.18 C 9.40833 km/h
275 01-04-2019 12:00:00 11.28333 C 6.7 g/m*3 11.28 C 10.08333 km/h
Sensor: Nr:Datum:Temp:Abs-Feuchte:Windchill:Wind:
Aussen-T/F 276 01-04-2019 13:00:00 13.00833 C 6.96 g/m*3 13.01 C 9.15833 km/h
277 01-04-2019 14:00:00 14.91667 C 7.26 g/m*3 14.92 C 10.63333 km/h
278 01-04-2019 15:00:00 16.39167 C 7.5 g/m*3 16.39 C 8.73333 km/h
279 01-04-2019 16:00:00 17.5 C 7.53 g/m*3 17.5 C 6.15833 km/h
280 01-04-2019 17:00:00 18.275 C 7.44 g/m*3 18.27 C 8.46667 km/h
281 01-04-2019 18:00:00 17.875 C 7.22 g/m*3 17.88 C 7.65833 km/h
282 01-04-2019 19:00:00 16 C 7.62 g/m*3 16 C 4.01667 km/h
283 01-04-2019 20:00:00 11.775 C 7.41 g/m*3 11.78 C 5.2 km/h
284 01-04-2019 21:00:00 10.15833 C 7.18 g/m*3 10.16 C 4.66667 km/h
285 01-04-2019 22:00:00 9.35 C 6.95 g/m*3 9.35 C 2.26667 km/h
286 01-04-2019 23:00:00 8.79167 C 6.73 g/m*3 8.79 C 1.86667 km/h
287 02-04-2019 00:00:00 7.93333 C 6.63 g/m*3 7.93 C 0 km/h
288 02-04-2019 01:00:00 7.04167 C 6.46 g/m*3 7.04 C 0 km/h
289 02-04-2019 02:00:00 6.3 C 6.27 g/m*3 6.3 C 0 km/h
290 02-04-2019 03:00:00 5.09167 C 5.98 g/m*3 5.09 C 0 km/h
291 02-04-2019 04:00:00 4.39167 C 5.88 g/m*3 4.39 C 0 km/h
292 02-04-2019 05:00:00 3.96667 C 5.78 g/m*3 3.97 C 0 km/h
293 02-04-2019 06:00:00 3.88333 C 5.81 g/m*3 3.88 C 0 km/h
294 02-04-2019 07:00:00 4.00833 C 5.91 g/m*3 4.01 C 0 km/h
295 02-04-2019 08:00:00 4.98333 C 6.31 g/m*3 4.98 C 0 km/h
296 02-04-2019 09:00:00 6.53333 C 6.71 g/m*3 6.53 C 0 km/h
297 02-04-2019 10:00:00 8.71667 C 7.1 g/m*3 8.72 C 0 km/h
298 02-04-2019 11:00:00 11.95 C 7.96 g/m*3 11.95 C 2.8 km/h
299 02-04-2019 12:00:00 15.01667 C 8.57 g/m*3 15.02 C 4.01667 km/h
300 02-04-2019 13:00:00 16.80833 C 8.7 g/m*3 16.81 C 6.175 km/h
Sensor: Nr:Datum:Temp:Abs-Feuchte:Windchill:Wind:
Aussen-T/F 301 02-04-2019 14:00:00 17.975 C 8.91 g/m*3 17.98 C 9.55833 km/h
302 02-04-2019 15:00:00 16.725 C 9.1 g/m*3 16.73 C 12.625 km/h
303 02-04-2019 16:00:00 17.46667 C 8.58 g/m*3 17.47 C 16.36667 km/h
304 02-04-2019 17:00:00 16.00833 C 8.99 g/m*3 16.01 C 9.15 km/h
305 02-04-2019 18:00:00 16.08333 C 8.71 g/m*3 16.08 C 6.71667 km/h
306 02-04-2019 19:00:00 15.35833 C 8.65 g/m*3 15.36 C 4.00833 km/h
307 02-04-2019 20:00:00 14.03333 C 8.59 g/m*3 14.03 C 7.11667 km/h
308 02-04-2019 21:00:00 13.50833 C 8.12 g/m*3 13.51 C 8.325 km/h
309 02-04-2019 22:00:00 12.66667 C 7.79 g/m*3 12.67 C 6.84167 km/h
310 02-04-2019 23:00:00 11.4 C 7.6 g/m*3 11.4 C 0.66667 km/h
311 03-04-2019 00:00:00 10.50833 C 7.64 g/m*3 10.51 C 0.66667 km/h
312 03-04-2019 01:00:00 10.275 C 7.62 g/m*3 10.28 C 0 km/h
313 03-04-2019 02:00:00 9.90833 C 7.61 g/m*3 9.91 C 0 km/h
314 03-04-2019 03:00:00 8.91667 C 7.43 g/m*3 8.92 C 0 km/h
315 03-04-2019 04:00:00 8.875 C 7.54 g/m*3 8.88 C 0 km/h
316 03-04-2019 05:00:00 8.6 C 7.44 g/m*3 8.6 C 0 km/h
317 03-04-2019 06:00:00 8.075 C 7.3 g/m*3 8.07 C 0.53333 km/h
318 03-04-2019 07:00:00 8.64167 C 7.32 g/m*3 8.64 C 0.53333 km/h
319 03-04-2019 08:00:00 8.86667 C 7.52 g/m*3 8.87 C 3.35833 km/h
320 03-04-2019 09:00:00 7.66667 C 7.32 g/m*3 5.96 C 9.4 km/h
321 03-04-2019 10:00:00 7.025 C 7.11 g/m*3 7.03 C 2.80833 km/h
322 03-04-2019 11:00:00 7.44167 C 7.33 g/m*3 7.44 C 1.2 km/h
323 03-04-2019 12:00:00 8.33333 C 7.51 g/m*3 8.33 C 3.60833 km/h
324 03-04-2019 13:00:00 9.475 C 7.56 g/m*3 9.48 C 3.6 km/h
325 03-04-2019 14:00:00 9.43333 C 7.37 g/m*3 9.43 C 4.54167 km/h
Sensor: Nr:Datum:Temp:Abs-Feuchte:Windchill:Wind:
Aussen-T/F 326 03-04-2019 15:00:00 10.05 C 7.52 g/m*3 9.35 C 6.7 km/h
327 03-04-2019 16:00:00 10.2 C 7.47 g/m*3 10.2 C 4.675 km/h
328 03-04-2019 17:00:00 9.45833 C 7.47 g/m*3 9.46 C 2.93333 km/h
329 03-04-2019 18:00:00 7.93333 C 7.42 g/m*3 7.93 C 1.6 km/h
330 03-04-2019 19:00:00 7.025 C 7.2 g/m*3 7.03 C 0.26667 km/h
331 03-04-2019 20:00:00 6.45 C 7 g/m*3 6.45 C 0 km/h
332 03-04-2019 21:00:00 6.23333 C 6.98 g/m*3 6.23 C 0 km/h
333 03-04-2019 22:00:00 5.875 C 6.84 g/m*3 5.88 C 0.13333 km/h
334 03-04-2019 23:00:00 5.63333 C 6.73 g/m*3 5.63 C 0.13333 km/h
335 04-04-2019 00:00:00 5.65 C 6.77 g/m*3 5.65 C 0.4 km/h
336 04-04-2019 01:00:00 5.325 C 6.64 g/m*3 5.33 C 1.06667 km/h
337 04-04-2019 02:00:00 5.41667 C 6.71 g/m*3 5.42 C 2.13333 km/h
338 04-04-2019 03:00:00 5.6 C 6.79 g/m*3 5.6 C 0 km/h
339 04-04-2019 04:00:00 5.54167 C 6.76 g/m*3 5.54 C 0 km/h
340 04-04-2019 05:00:00 5.60833 C 6.79 g/m*3 5.61 C 0 km/h
341 04-04-2019 06:00:00 5.475 C 6.73 g/m*3 5.48 C 0 km/h
342 04-04-2019 07:00:00 5.34167 C 6.67 g/m*3 5.34 C 0 km/h
343 04-04-2019 08:00:00 5.61667 C 6.79 g/m*3 5.62 C 0 km/h
344 04-04-2019 09:00:00 5.93333 C 6.97 g/m*3 5.93 C 0.66667 km/h
345 04-04-2019 10:00:00 6.075 C 7 g/m*3 6.08 C 1.46667 km/h
346 04-04-2019 11:00:00 6.65833 C 7.07 g/m*3 6.66 C 2.26667 km/h
347 04-04-2019 12:00:00 6.95 C 6.91 g/m*3 6.17 C 5.375 km/h
348 04-04-2019 13:00:00 6.69167 C 6.96 g/m*3 6.69 C 2.80833 km/h
349 04-04-2019 14:00:00 6.4 C 6.84 g/m*3 6.4 C 4.14167 km/h
350 04-04-2019 15:00:00 6.85833 C 6.99 g/m*3 6.86 C 0.4 km/h
Sensor: Nr:Datum:Temp:Abs-Feuchte:Windchill:Wind:
Aussen-T/F 351 04-04-2019 16:00:00 7.08333 C 7.09 g/m*3 7.08 C 1.73333 km/h
352 04-04-2019 17:00:00 7.43333 C 7.03 g/m*3 7.43 C 4.55 km/h
353 04-04-2019 18:00:00 7.56667 C 6.85 g/m*3 7.57 C 3.475 km/h
354 04-04-2019 19:00:00 7.25833 C 6.86 g/m*3 7.26 C 1.33333 km/h
355 04-04-2019 20:00:00 5.95833 C 6.64 g/m*3 5.96 C 1.46667 km/h
356 04-04-2019 21:00:00 5.29167 C 6.48 g/m*3 5.29 C 1.33333 km/h
357 04-04-2019 22:00:00 5.08333 C 6.45 g/m*3 5.08 C 0.53333 km/h
358 04-04-2019 23:00:00 4.575 C 6.24 g/m*3 4.58 C 0 km/h
359 05-04-2019 00:00:00 4.10833 C 6.08 g/m*3 4.11 C 0 km/h
360 05-04-2019 01:00:00 3.525 C 5.87 g/m*3 3.53 C 0 km/h
361 05-04-2019 02:00:00 3.775 C 6.01 g/m*3 3.78 C 0 km/h
362 05-04-2019 03:00:00 3.85833 C 6.05 g/m*3 3.86 C 0 km/h
363 05-04-2019 04:00:00 4.06667 C 6.13 g/m*3 4.07 C 0 km/h
364 05-04-2019 05:00:00 3.93333 C 6.08 g/m*3 3.93 C 0 km/h
365 05-04-2019 06:00:00 3.9 C 6.06 g/m*3 3.9 C 0 km/h
366 05-04-2019 07:00:00 4.13333 C 6.2 g/m*3 4.13 C 0 km/h
367 05-04-2019 08:00:00 4.64167 C 6.44 g/m*3 4.64 C 0 km/h
368 05-04-2019 09:00:00 5.3 C 6.72 g/m*3 5.3 C 3.06667 km/h
369 05-04-2019 10:00:00 5.89167 C 6.89 g/m*3 5.89 C 1.2 km/h
370 05-04-2019 11:00:00 7.16667 C 7.06 g/m*3 6.34 C 5.60833 km/h
371 05-04-2019 12:00:00 8.025 C 7.1 g/m*3 6.87 C 7.23333 km/h
372 05-04-2019 13:00:00 8.19167 C 7.07 g/m*3 8.19 C 4.54167 km/h
373 05-04-2019 14:00:00 8.41667 C 7.1 g/m*3 8.42 C 3.46667 km/h
374 05-04-2019 15:00:00 8.55 C 7.21 g/m*3 8.55 C 4.40833 km/h
375 05-04-2019 16:00:00 8.58333 C 7.32 g/m*3 8.08 C 5.20833 km/h
Sensor: Nr:Datum:Temp:Abs-Feuchte:Windchill:Wind:
Aussen-T/F 376 05-04-2019 17:00:00 8.41667 C 7.4 g/m*3 8.42 C 4.14167 km/h
377 05-04-2019 18:00:00 8.3 C 7.49 g/m*3 8.3 C 2.94167 km/h
378 05-04-2019 19:00:00 8.19167 C 7.55 g/m*3 8.19 C 0 km/h
379 05-04-2019 20:00:00 7.925 C 7.55 g/m*3 7.93 C 0 km/h
380 05-04-2019 21:00:00 7.69167 C 7.54 g/m*3 7.69 C 0 km/h
381 05-04-2019 22:00:00 7.61667 C 7.58 g/m*3 7.62 C 0 km/h
382 05-04-2019 23:00:00 7.6 C 7.61 g/m*3 7.6 C 0 km/h
383 06-04-2019 00:00:00 7.45833 C 7.58 g/m*3 7.46 C 0 km/h
384 06-04-2019 01:00:00 7.40833 C 7.63 g/m*3 7.41 C 0 km/h
385 06-04-2019 02:00:00 7.225 C 7.54 g/m*3 7.23 C 0 km/h
386 06-04-2019 03:00:00 6.14167 C 6.97 g/m*3 6.14 C 2.93333 km/h
387 06-04-2019 04:00:00 5.15833 C 6.57 g/m*3 5.16 C 0.13333 km/h
388 06-04-2019 05:00:00 5.01667 C 6.53 g/m*3 5.02 C 0 km/h
389 06-04-2019 06:00:00 4.675 C 6.4 g/m*3 4.68 C 0 km/h
390 06-04-2019 07:00:00 5.13333 C 6.63 g/m*3 5.13 C 0 km/h
391 06-04-2019 08:00:00 5.71667 C 6.91 g/m*3 5.72 C 0.4 km/h
392 06-04-2019 09:00:00 6.025 C 7.05 g/m*3 6.03 C 0.53333 km/h
393 06-04-2019 10:00:00 7.325 C 7.69 g/m*3 7.33 C 0 km/h
394 06-04-2019 11:00:00 9.825 C 8.4 g/m*3 9.09 C 6.70833 km/h
395 06-04-2019 12:00:00 12.51667 C 8.42 g/m*3 12.52 C 5.89167 km/h
396 06-04-2019 13:00:00 14.375 C 8.5 g/m*3 14.38 C 8.325 km/h
397 06-04-2019 14:00:00 16.04167 C 8.47 g/m*3 16.04 C 8.85 km/h
398 06-04-2019 15:00:00 15.96667 C 8.24 g/m*3 15.97 C 9.40833 km/h
399 06-04-2019 16:00:00 15.81667 C 8.31 g/m*3 15.82 C 7.925 km/h
400 06-04-2019 17:00:00 16.30833 C 8.41 g/m*3 16.31 C 8.05833 km/h
Sensor: Nr:Datum:Temp:Abs-Feuchte:Windchill:Wind:
Aussen-T/F 401 06-04-2019 18:00:00 17.31667 C 8.61 g/m*3 17.32 C 6.175 km/h
402 06-04-2019 19:00:00 16.46667 C 9.06 g/m*3 16.47 C 0.53333 km/h
403 06-04-2019 20:00:00 12.50833 C 8.76 g/m*3 12.51 C 0 km/h
404 06-04-2019 21:00:00 11.1 C 8.53 g/m*3 11.1 C 0 km/h
405 06-04-2019 22:00:00 10.05 C 8.28 g/m*3 10.05 C 0 km/h
406 06-04-2019 23:00:00 9.3 C 8.04 g/m*3 9.3 C 0 km/h
407 07-04-2019 00:00:00 8.40833 C 7.77 g/m*3 8.41 C 0 km/h
408 07-04-2019 01:00:00 7.75833 C 7.54 g/m*3 7.76 C 0 km/h
409 07-04-2019 02:00:00 7.175 C 7.34 g/m*3 7.18 C 0 km/h
410 07-04-2019 03:00:00 6.775 C 7.23 g/m*3 6.78 C 0 km/h
411 07-04-2019 04:00:00 6.09167 C 6.91 g/m*3 6.09 C 0 km/h
412 07-04-2019 05:00:00 5.68333 C 6.75 g/m*3 5.68 C 0 km/h
413 07-04-2019 06:00:00 5.43333 C 6.71 g/m*3 5.43 C 0 km/h
414 07-04-2019 07:00:00 4.68333 C 6.37 g/m*3 4.68 C 0 km/h
415 07-04-2019 08:00:00 5.23333 C 6.64 g/m*3 5.23 C 0 km/h
416 07-04-2019 09:00:00 6.14167 C 7.11 g/m*3 6.14 C 0.4 km/h
417 07-04-2019 10:00:00 8.25 C 8.16 g/m*3 8.25 C 0.4 km/h
418 07-04-2019 11:00:00 12.725 C 8.8 g/m*3 12.73 C 10.08333 km/h
419 07-04-2019 12:00:00 15.79167 C 7.95 g/m*3 15.79 C 12.75833 km/h
420 07-04-2019 13:00:00 17.00833 C 7.47 g/m*3 17.01 C 11.15833 km/h
421 07-04-2019 14:00:00 18.25833 C 7.16 g/m*3 18.26 C 16.9 km/h
422 07-04-2019 15:00:00 19.13333 C 6.83 g/m*3 19.13 C 12.225 km/h
423 07-04-2019 16:00:00 20 C 6.81 g/m*3 20 C 11.68333 km/h
424 07-04-2019 17:00:00 20.88333 C 7.02 g/m*3 20.88 C 8.31667 km/h
425 07-04-2019 18:00:00 19.09167 C 7.91 g/m*3 19.09 C 5.775 km/h
Sensor: Nr:Datum:Temp:Abs-Feuchte:Windchill:Wind:
Aussen-T/F 426 07-04-2019 19:00:00 16.95 C 8.97 g/m*3 16.95 C 0.13333 km/h
427 07-04-2019 20:00:00 15.14167 C 8.86 g/m*3 15.14 C 2.8 km/h
428 07-04-2019 21:00:00 14.49167 C 8.9 g/m*3 14.49 C 0.8 km/h
429 07-04-2019 22:00:00 13.95 C 8.9 g/m*3 13.95 C 0 km/h
430 07-04-2019 23:00:00 13.44167 C 9.12 g/m*3 13.44 C 0 km/h
431 08-04-2019 00:00:00 12.95 C 9.18 g/m*3 12.95 C 0.13333 km/h
432 08-04-2019 01:00:00 12.53333 C 9.12 g/m*3 12.53 C 0.13333 km/h
433 08-04-2019 02:00:00 11.975 C 8.98 g/m*3 11.98 C 0.26667 km/h
434 08-04-2019 03:00:00 11.60833 C 8.9 g/m*3 11.61 C 0.8 km/h
435 08-04-2019 04:00:00 11.23333 C 8.83 g/m*3 11.23 C 0.13333 km/h
436 08-04-2019 05:00:00 11.06667 C 8.85 g/m*3 11.07 C 0.13333 km/h
437 08-04-2019 06:00:00 10.66667 C 8.69 g/m*3 10.67 C 0.13333 km/h
438 08-04-2019 07:00:00 10.025 C 8.5 g/m*3 10.03 C 0 km/h
439 08-04-2019 08:00:00 10.425 C 8.87 g/m*3 10.43 C 0 km/h
440 08-04-2019 09:00:00 11.5 C 9.16 g/m*3 11.5 C 1.46667 km/h
441 08-04-2019 10:00:00 12.45833 C 9.29 g/m*3 12.46 C 1.6 km/h
442 08-04-2019 11:00:00 13.16667 C 9.47 g/m*3 13.17 C 1.46667 km/h
443 08-04-2019 12:00:00 13.15 C 9.54 g/m*3 13.15 C 1.2 km/h
444 08-04-2019 13:00:00 13.48333 C 9.73 g/m*3 13.48 C 1.06667 km/h
445 08-04-2019 14:00:00 15.05 C 9.93 g/m*3 15.05 C 3.73333 km/h
446 08-04-2019 15:00:00 16.80833 C 9.88 g/m*3 16.81 C 6.55833 km/h
447 08-04-2019 16:00:00 17.05833 C 9.84 g/m*3 17.06 C 2.93333 km/h
448 08-04-2019 17:00:00 15.05 C 10.8 g/m*3 15.05 C 0.53333 km/h
449 08-04-2019 18:00:00 14.35833 C 10.75 g/m*3 14.36 C 0.93333 km/h
450 08-04-2019 19:00:00 13.84167 C 10.29 g/m*3 13.84 C 1.6 km/h
Sensor: Nr:Datum:Temp:Abs-Feuchte:Windchill:Wind:
Aussen-T/F 451 08-04-2019 20:00:00 12.875 C 10.06 g/m*3 12.88 C 0.4 km/h
452 08-04-2019 21:00:00 11.425 C 9.52 g/m*3 11.43 C 3.86667 km/h
453 08-04-2019 22:00:00 11.1 C 9.53 g/m*3 11.1 C 1.06667 km/h
454 08-04-2019 23:00:00 10.93333 C 9.45 g/m*3 10.93 C 0.53333 km/h
455 09-04-2019 00:00:00 10.20833 C 9.04 g/m*3 10.21 C 0.93333 km/h
456 09-04-2019 01:00:00 10.16667 C 9.08 g/m*3 10.17 C 0.26667 km/h
457 09-04-2019 02:00:00 10.44167 C 9.28 g/m*3 10.44 C 0 km/h
458 09-04-2019 03:00:00 10.15833 C 9.11 g/m*3 10.16 C 0 km/h
459 09-04-2019 04:00:00 9.73333 C 8.87 g/m*3 9.73 C 0 km/h
460 09-04-2019 05:00:00 9.025 C 8.48 g/m*3 9.03 C 0 km/h
461 09-04-2019 06:00:00 8.94167 C 8.47 g/m*3 8.94 C 0 km/h
462 09-04-2019 07:00:00 9.30833 C 8.72 g/m*3 9.31 C 0 km/h
463 09-04-2019 08:00:00 9.875 C 9.04 g/m*3 9.88 C 0 km/h
464 09-04-2019 09:00:00 10.50833 C 9.41 g/m*3 10.51 C 0.53333 km/h
465 09-04-2019 10:00:00 11.09167 C 9.65 g/m*3 11.09 C 1.2 km/h
466 09-04-2019 11:00:00 11.90833 C 10.03 g/m*3 11.91 C 2.13333 km/h
467 09-04-2019 12:00:00 12.83333 C 10.38 g/m*3 12.83 C 1.2 km/h
468 09-04-2019 13:00:00 14.475 C 10.69 g/m*3 14.48 C 3.2 km/h
469 09-04-2019 14:00:00 16.075 C 10.8 g/m*3 16.08 C 6.83333 km/h
470 09-04-2019 15:00:00 16.325 C 10.83 g/m*3 16.33 C 5.49167 km/h
471 09-04-2019 16:00:00 16.08333 C 10.79 g/m*3 16.08 C 5.475 km/h
472 09-04-2019 17:00:00 15.85 C 10.69 g/m*3 15.85 C 0.66667 km/h
473 09-04-2019 18:00:00 15.4 C 10.9 g/m*3 15.4 C 0.13333 km/h
474 09-04-2019 19:00:00 14.58333 C 10.17 g/m*3 14.58 C 2.80833 km/h
475 09-04-2019 20:00:00 13.625 C 9.69 g/m*3 13.63 C 0.93333 km/h
Sensor: Nr:Datum:Temp:Abs-Feuchte:Windchill:Wind:
Aussen-T/F 476 09-04-2019 21:00:00 12.48333 C 9.24 g/m*3 12.48 C 0.4 km/h
477 09-04-2019 22:00:00 12.36667 C 8.16 g/m*3 12.37 C 4.53333 km/h
478 09-04-2019 23:00:00 12.16667 C 7.6 g/m*3 12.17 C 7.38333 km/h
479 10-04-2019 00:00:00 10.925 C 7.85 g/m*3 10.93 C 2.94167 km/h
480 10-04-2019 01:00:00 10.36667 C 7.52 g/m*3 10.37 C 4.28333 km/h
481 10-04-2019 02:00:00 9.91667 C 7.56 g/m*3 9.92 C 1.6 km/h
482 10-04-2019 03:00:00 9.775 C 7.29 g/m*3 9.78 C 3.35 km/h
483 10-04-2019 04:00:00 8.79167 C 7.06 g/m*3 8.79 C 0.53333 km/h
484 10-04-2019 05:00:00 7.34167 C 6.71 g/m*3 7.34 C 0.53333 km/h
485 10-04-2019 06:00:00 6.50833 C 6.47 g/m*3 6.51 C 0.66667 km/h
486 10-04-2019 07:00:00 6.6 C 6.37 g/m*3 6.6 C 0.26667 km/h
487 10-04-2019 08:00:00 7.675 C 6.24 g/m*3 6.99 C 5.36667 km/h
488 10-04-2019 09:00:00 8.50833 C 6.14 g/m*3 6.74 C 10.625 km/h
489 10-04-2019 10:00:00 9.575 C 6.31 g/m*3 7.82 C 11.83333 km/h
490 10-04-2019 11:00:00 11.18333 C 6.41 g/m*3 11.18 C 12.9 km/h
491 10-04-2019 12:00:00 12.16667 C 6.12 g/m*3 12.17 C 11.01667 km/h
492 10-04-2019 13:00:00 13.425 C 6.32 g/m*3 13.43 C 9.94167 km/h
493 10-04-2019 14:00:00 14.24167 C 6.08 g/m*3 14.24 C 12.76667 km/h
494 10-04-2019 15:00:00 15.1 C 6.04 g/m*3 15.1 C 13.43333 km/h
495 10-04-2019 16:00:00 16.075 C 6.01 g/m*3 16.08 C 13.825 km/h
496 10-04-2019 17:00:00 16.6 C 5.79 g/m*3 16.6 C 12.35833 km/h
497 10-04-2019 18:00:00 15.94167 C 5.17 g/m*3 15.94 C 14.5 km/h
498 10-04-2019 19:00:00 14.4 C 5.28 g/m*3 14.4 C 14.9 km/h
499 10-04-2019 20:00:00 11.34167 C 5.8 g/m*3 11.34 C 3.20833 km/h
500 10-04-2019 21:00:00 8.9 C 5.88 g/m*3 8.9 C 2.13333 km/h
Sensor: Nr:Datum:Temp:Abs-Feuchte:Windchill:Wind:
Aussen-T/F 501 10-04-2019 22:00:00 7.38333 C 5.81 g/m*3 7.38 C 0.4 km/h
502 10-04-2019 23:00:00 6.46667 C 5.71 g/m*3 6.47 C 0.66667 km/h
503 11-04-2019 00:00:00 5.75 C 5.52 g/m*3 5.75 C 1.34167 km/h
504 11-04-2019 01:00:00 5.03333 C 5.31 g/m*3 5.03 C 0.53333 km/h
505 11-04-2019 02:00:00 4.4 C 5.15 g/m*3 4.4 C 1.2 km/h
506 11-04-2019 03:00:00 3.85833 C 4.98 g/m*3 3.86 C 0 km/h
507 11-04-2019 04:00:00 2.9 C 4.76 g/m*3 2.9 C 0 km/h
508 11-04-2019 05:00:00 2.30833 C 4.64 g/m*3 2.31 C 0.26667 km/h
509 11-04-2019 06:00:00 1.71667 C 4.54 g/m*3 1.72 C 0 km/h
510 11-04-2019 07:00:00 1.21667 C 4.49 g/m*3 1.22 C 0 km/h
511 11-04-2019 08:00:00 1.8 C 4.69 g/m*3 1.8 C 0 km/h
512 11-04-2019 09:00:00 3.9 C 4.89 g/m*3 3.9 C 4.69167 km/h
513 11-04-2019 10:00:00 6.76667 C 4.43 g/m*3 3.92 C 15.03333 km/h
514 11-04-2019 11:00:00 8.1 C 4.14 g/m*3 5.23 C 17.70833 km/h
515 11-04-2019 12:00:00 8.91667 C 4.03 g/m*3 6.41 C 16.36667 km/h
516 11-04-2019 13:00:00 9.875 C 4.05 g/m*3 7.86 C 14.23333 km/h
517 11-04-2019 14:00:00 11.01667 C 4.09 g/m*3 11.02 C 16.5 km/h
518 11-04-2019 15:00:00 12 C 4.13 g/m*3 12 C 17.175 km/h
519 11-04-2019 16:00:00 12.76667 C 4.04 g/m*3 12.77 C 16.36667 km/h
520 11-04-2019 17:00:00 13.31667 C 4.02 g/m*3 13.32 C 14.76667 km/h
521 11-04-2019 18:00:00 13.025 C 3.99 g/m*3 13.03 C 11.41667 km/h
522 11-04-2019 19:00:00 11.95833 C 4.06 g/m*3 11.96 C 7.65833 km/h
523 11-04-2019 20:00:00 8.95 C 4.36 g/m*3 8.95 C 2.4 km/h
524 11-04-2019 21:00:00 6.225 C 4.52 g/m*3 6.23 C 2.26667 km/h
525 11-04-2019 22:00:00 5.35 C 4.45 g/m*3 5.35 C 2.80833 km/h
Sensor: Nr:Datum:Temp:Abs-Feuchte:Windchill:Wind:
Aussen-T/F 526 11-04-2019 23:00:00 5.48333 C 4.26 g/m*3 5.48 C 3.75 km/h
527 12-04-2019 00:00:00 4.46667 C 4.12 g/m*3 3.34 C 5.35 km/h
528 12-04-2019 01:00:00 3.54167 C 4.03 g/m*3 3.54 C 3.34167 km/h
529 12-04-2019 02:00:00 2.15833 C 4.03 g/m*3 2.16 C 2.53333 km/h
530 12-04-2019 03:00:00 1.60833 C 3.98 g/m*3 1.61 C 3.06667 km/h
531 12-04-2019 04:00:00 2.15833 C 4.23 g/m*3 2.16 C 0.66667 km/h
532 12-04-2019 05:00:00 2.70833 C 4.27 g/m*3 2.71 C 0 km/h
533 12-04-2019 06:00:00 2.98333 C 4.21 g/m*3 2.98 C 0 km/h
534 12-04-2019 07:00:00 3.475 C 4.1 g/m*3 3.48 C 3.075 km/h
535 12-04-2019 08:00:00 4.63333 C 3.85 g/m*3 1.97 C 11.16667 km/h
536 12-04-2019 09:00:00 5.03333 C 3.82 g/m*3 2.3 C 11.95833 km/h
537 12-04-2019 10:00:00 5.49167 C 3.74 g/m*3 1.91 C 18.23333 km/h
538 12-04-2019 11:00:00 5.98333 C 3.76 g/m*3 2.37 C 19.43333 km/h
539 12-04-2019 12:00:00 6.78333 C 3.82 g/m*3 4.08 C 14.09167 km/h
540 12-04-2019 13:00:00 7.15833 C 3.74 g/m*3 4.9 C 11.825 km/h
541 12-04-2019 14:00:00 7.26667 C 3.69 g/m*3 4.83 C 13.03333 km/h
542 12-04-2019 15:00:00 7.56667 C 3.73 g/m*3 5.26 C 12.63333 km/h
543 12-04-2019 16:00:00 7.3 C 3.74 g/m*3 5.16 C 11.3 km/h
544 12-04-2019 17:00:00 7.1 C 3.64 g/m*3 5.46 C 8.61667 km/h
545 12-04-2019 18:00:00 6.83333 C 3.76 g/m*3 4.53 C 11.7 km/h
546 12-04-2019 19:00:00 6.525 C 3.91 g/m*3 4.41 C 10.35833 km/h
547 12-04-2019 20:00:00 6.06667 C 4 g/m*3 4.3 C 8.34167 km/h
548 12-04-2019 21:00:00 5.55 C 4.25 g/m*3 4.34 C 6.04167 km/h
549 12-04-2019 22:00:00 4.39167 C 4.34 g/m*3 4.39 C 0.26667 km/h
550 12-04-2019 23:00:00 3.58333 C 4.25 g/m*3 3.58 C 0.13333 km/h
Sensor: Nr:Datum:Temp:Abs-Feuchte:Windchill:Wind:
Aussen-T/F 551 13-04-2019 00:00:00 2.95 C 4.3 g/m*3 2.95 C 0.66667 km/h
552 13-04-2019 01:00:00 2.875 C 4.31 g/m*3 2.88 C 2.13333 km/h
553 13-04-2019 02:00:00 2.61667 C 4.39 g/m*3 2.62 C 1.6 km/h
554 13-04-2019 03:00:00 2.30833 C 4.42 g/m*3 2.31 C 0.26667 km/h
555 13-04-2019 04:00:00 2.6 C 4.48 g/m*3 2.6 C 2.275 km/h
556 13-04-2019 05:00:00 2.54167 C 4.5 g/m*3 2.54 C 0.4 km/h
557 13-04-2019 06:00:00 2.28333 C 4.56 g/m*3 2.28 C 0.93333 km/h
558 13-04-2019 07:00:00 2.5 C 4.6 g/m*3 2.5 C 2 km/h
559 13-04-2019 08:00:00 3.125 C 4.63 g/m*3 1.24 C 6.975 km/h
560 13-04-2019 09:00:00 3.60833 C 4.54 g/m*3 1.68 C 7.375 km/h
561 13-04-2019 10:00:00 4.75833 C 4.42 g/m*3 2.83 C 8.075 km/h
562 13-04-2019 11:00:00 5.36667 C 4.25 g/m*3 3.66 C 7.65 km/h
563 13-04-2019 12:00:00 5.96667 C 4.15 g/m*3 3.58 C 11.15 km/h
564 13-04-2019 13:00:00 5.75833 C 4.51 g/m*3 3.55 C 10.075 km/h
565 13-04-2019 14:00:00 4.69167 C 5.15 g/m*3 2.3 C 9.93333 km/h
566 13-04-2019 15:00:00 5.61667 C 5.3 g/m*3 3.85 C 8.05 km/h
567 13-04-2019 16:00:00 6.21667 C 5.06 g/m*3 3.51 C 13.29167 km/h
568 13-04-2019 17:00:00 4.55 C 5.59 g/m*3 3.33 C 5.63333 km/h
569 13-04-2019 18:00:00 6.29167 C 5.7 g/m*3 6.29 C 4.28333 km/h
570 13-04-2019 19:00:00 5.59167 C 5.48 g/m*3 5.59 C 1.73333 km/h
571 13-04-2019 20:00:00 4.63333 C 5.35 g/m*3 4.63 C 2.54167 km/h
572 13-04-2019 21:00:00 3.075 C 5 g/m*3 3.08 C 0 km/h
573 13-04-2019 22:00:00 1.56667 C 4.72 g/m*3 1.57 C 0 km/h
574 13-04-2019 23:00:00 1.04167 C 4.68 g/m*3 1.04 C 0 km/h
575 14-04-2019 00:00:00 0.475 C 4.56 g/m*3 0.48 C 0 km/h
Sensor: Nr:Datum:Temp:Abs-Feuchte:Windchill:Wind:
Aussen-T/F 576 14-04-2019 01:00:00 0.45 C 4.63 g/m*3 0.45 C 0 km/h
577 14-04-2019 02:00:00 1.23333 C 4.92 g/m*3 1.23 C 0.13333 km/h
578 14-04-2019 03:00:00 1.575 C 5.02 g/m*3 1.58 C 0.53333 km/h
579 14-04-2019 04:00:00 1.63333 C 5.04 g/m*3 1.63 C 0.26667 km/h
580 14-04-2019 05:00:00 1.56667 C 5.05 g/m*3 1.57 C 0.66667 km/h
581 14-04-2019 06:00:00 1.25833 C 4.97 g/m*3 1.26 C 0 km/h
582 14-04-2019 07:00:00 1.225 C 5.01 g/m*3 1.23 C 0 km/h
583 14-04-2019 08:00:00 1.5 C 5.11 g/m*3 1.5 C 0 km/h
584 14-04-2019 09:00:00 2.66667 C 5.57 g/m*3 2.67 C 0.13333 km/h
585 14-04-2019 10:00:00 4.15 C 6.06 g/m*3 4.15 C 4.69167 km/h
586 14-04-2019 11:00:00 6.00833 C 6.14 g/m*3 4.71 C 6.575 km/h
587 14-04-2019 12:00:00 7.71667 C 5.62 g/m*3 5.62 C 11.55833 km/h
588 14-04-2019 13:00:00 8.99167 C 5.14 g/m*3 7.21 C 11.275 km/h
589 14-04-2019 14:00:00 10.43333 C 5.05 g/m*3 8.63 C 13.56667 km/h
590 14-04-2019 15:00:00 11.46667 C 4.99 g/m*3 11.47 C 12.89167 km/h
591 14-04-2019 16:00:00 12.08333 C 4.9 g/m*3 12.08 C 12.63333 km/h
592 14-04-2019 17:00:00 12.50833 C 4.81 g/m*3 12.51 C 13.69167 km/h
593 14-04-2019 18:00:00 12.06667 C 4.87 g/m*3 12.07 C 12.625 km/h
594 14-04-2019 19:00:00 10.99167 C 5.18 g/m*3 9.87 C 9.66667 km/h
595 14-04-2019 20:00:00 8.25 C 5.41 g/m*3 8.25 C 2.40833 km/h
596 14-04-2019 21:00:00 5.925 C 5.5 g/m*3 5.93 C 2.14167 km/h
597 14-04-2019 22:00:00 4.61667 C 5.42 g/m*3 4.62 C 1.86667 km/h
598 14-04-2019 23:00:00 4.06667 C 5.39 g/m*3 4.07 C 1.6 km/h
599 15-04-2019 00:00:00 4.11667 C 5.51 g/m*3 4.12 C 0.93333 km/h
600 15-04-2019 01:00:00 5.075 C 5.83 g/m*3 5.08 C 0.53333 km/h
Sensor: Nr:Datum:Temp:Abs-Feuchte:Windchill:Wind:
Aussen-T/F 601 15-04-2019 02:00:00 5.64167 C 5.91 g/m*3 5.64 C 0.26667 km/h
602 15-04-2019 03:00:00 4.81667 C 5.71 g/m*3 4.82 C 0.66667 km/h
603 15-04-2019 04:00:00 4.78333 C 5.81 g/m*3 4.78 C 0 km/h
604 15-04-2019 05:00:00 4.26667 C 5.68 g/m*3 4.27 C 0.4 km/h
605 15-04-2019 06:00:00 4.48333 C 5.87 g/m*3 4.48 C 0 km/h
606 15-04-2019 07:00:00 5.1 C 6.13 g/m*3 5.1 C 0 km/h
607 15-04-2019 08:00:00 5.98333 C 6.38 g/m*3 5.98 C 2.14167 km/h
608 15-04-2019 09:00:00 7.175 C 6.61 g/m*3 5.98 C 6.84167 km/h
609 15-04-2019 10:00:00 8.34167 C 6.78 g/m*3 6.68 C 9.83333 km/h
610 15-04-2019 11:00:00 10.15833 C 7.1 g/m*3 9.48 C 6.70833 km/h
611 15-04-2019 12:00:00 12.475 C 7.23 g/m*3 12.48 C 13.025 km/h
612 15-04-2019 13:00:00 14.29167 C 7.15 g/m*3 14.29 C 15.16667 km/h
613 15-04-2019 14:00:00 16.025 C 7.25 g/m*3 16.02 C 14.23333 km/h
614 15-04-2019 15:00:00 17.53333 C 6.95 g/m*3 17.53 C 16.63333 km/h
615 15-04-2019 16:00:00 18.31667 C 7 g/m*3 18.32 C 14.75833 km/h
616 15-04-2019 17:00:00 18.95833 C 6.68 g/m*3 18.96 C 11.7 km/h
617 15-04-2019 18:00:00 19.13333 C 6.32 g/m*3 19.13 C 11.95833 km/h
618 15-04-2019 19:00:00 18.19167 C 6.42 g/m*3 18.19 C 5.89167 km/h
619 15-04-2019 20:00:00 14.2 C 6.99 g/m*3 14.2 C 3.6 km/h
620 15-04-2019 21:00:00 11.575 C 6.81 g/m*3 11.58 C 3.6 km/h
621 15-04-2019 22:00:00 10.24167 C 6.5 g/m*3 10.24 C 0.53333 km/h
622 15-04-2019 23:00:00 9.24167 C 6.19 g/m*3 9.24 C 3.6 km/h
623 16-04-2019 00:00:00 8.16667 C 5.98 g/m*3 8.17 C 4.66667 km/h
624 16-04-2019 01:00:00 7.25833 C 5.82 g/m*3 7.26 C 2.93333 km/h
625 16-04-2019 02:00:00 6.48333 C 5.69 g/m*3 6.48 C 2.53333 km/h
Sensor: Nr:Datum:Temp:Abs-Feuchte:Windchill:Wind:
Aussen-T/F 626 16-04-2019 03:00:00 6.06667 C 5.55 g/m*3 6.07 C 2 km/h
627 16-04-2019 04:00:00 5.83333 C 5.4 g/m*3 5.83 C 2.66667 km/h
628 16-04-2019 05:00:00 5.50833 C 5.35 g/m*3 5.51 C 2.93333 km/h
629 16-04-2019 06:00:00 4.99167 C 5.27 g/m*3 4.99 C 1.46667 km/h
630 16-04-2019 07:00:00 3.91667 C 5.23 g/m*3 3.92 C 0 km/h
631 16-04-2019 08:00:00 4.51667 C 5.48 g/m*3 4.52 C 0.4 km/h
632 16-04-2019 09:00:00 6.2 C 5.94 g/m*3 6.2 C 0.66667 km/h
633 16-04-2019 10:00:00 10.39167 C 6.13 g/m*3 10.39 C 3.875 km/h
634 16-04-2019 11:00:00 13.69167 C 6.06 g/m*3 13.69 C 6.85833 km/h
635 16-04-2019 12:00:00 15.59167 C 6.26 g/m*3 15.59 C 9.28333 km/h
636 16-04-2019 13:00:00 17.025 C 6.68 g/m*3 17.02 C 9.41667 km/h
637 16-04-2019 14:00:00 18.3 C 7.24 g/m*3 18.3 C 9.14167 km/h
638 16-04-2019 15:00:00 19.025 C 7.4 g/m*3 19.02 C 8.45833 km/h
639 16-04-2019 16:00:00 18.85833 C 7.5 g/m*3 18.86 C 7.24167 km/h
640 16-04-2019 17:00:00 18.09167 C 8.11 g/m*3 18.09 C 16.36667 km/h
641 16-04-2019 18:00:00 15.5 C 8.21 g/m*3 15.5 C 12.1 km/h
642 16-04-2019 19:00:00 14.63333 C 8.39 g/m*3 14.63 C 2.55 km/h
643 16-04-2019 20:00:00 13.25833 C 8.37 g/m*3 13.26 C 0.13333 km/h
644 16-04-2019 21:00:00 12.29167 C 8.25 g/m*3 12.29 C 0.8 km/h
645 16-04-2019 22:00:00 11.825 C 8.35 g/m*3 11.83 C 0.66667 km/h
646 16-04-2019 23:00:00 11.475 C 8.29 g/m*3 11.48 C 0 km/h
647 17-04-2019 00:00:00 11.01667 C 8.31 g/m*3 11.02 C 0 km/h
648 17-04-2019 01:00:00 10.725 C 8.68 g/m*3 10.73 C 1.86667 km/h
649 17-04-2019 02:00:00 10.25833 C 8.74 g/m*3 10.26 C 0.26667 km/h
650 17-04-2019 03:00:00 9.91667 C 8.72 g/m*3 9.92 C 0 km/h
Sensor: Nr:Datum:Temp:Abs-Feuchte:Windchill:Wind:
Aussen-T/F 651 17-04-2019 04:00:00 9.73333 C 8.71 g/m*3 9.73 C 0 km/h
652 17-04-2019 05:00:00 9.60833 C 8.71 g/m*3 9.61 C 0 km/h
653 17-04-2019 06:00:00 9.66667 C 8.77 g/m*3 9.67 C 0 km/h
654 17-04-2019 07:00:00 10 C 9.02 g/m*3 10 C 0.4 km/h
655 17-04-2019 08:00:00 10.64167 C 9.39 g/m*3 10.64 C 2.275 km/h
656 17-04-2019 09:00:00 11.36667 C 9.81 g/m*3 11.37 C 3.2 km/h
657 17-04-2019 10:00:00 12.30833 C 10.16 g/m*3 12.31 C 2.675 km/h
658 17-04-2019 11:00:00 13.04167 C 10.32 g/m*3 13.04 C 4.80833 km/h
659 17-04-2019 12:00:00 13.675 C 10.3 g/m*3 13.68 C 5.23333 km/h
660 17-04-2019 13:00:00 14.88333 C 10.47 g/m*3 14.88 C 6.98333 km/h
661 17-04-2019 14:00:00 16.18333 C 10.25 g/m*3 16.18 C 7.24167 km/h
662 17-04-2019 15:00:00 17.19167 C 10.21 g/m*3 17.19 C 7.9 km/h
663 17-04-2019 16:00:00 18.00833 C 9.67 g/m*3 18.01 C 13.01667 km/h
664 17-04-2019 17:00:00 18.225 C 9.74 g/m*3 18.23 C 7.91667 km/h
665 17-04-2019 18:00:00 18.16667 C 9.51 g/m*3 18.17 C 5.24167 km/h
666 17-04-2019 19:00:00 16.38333 C 10.26 g/m*3 16.38 C 0 km/h
667 17-04-2019 20:00:00 13.575 C 9.15 g/m*3 13.58 C 2.13333 km/h
668 17-04-2019 21:00:00 11.65 C 8.36 g/m*3 11.65 C 3.2 km/h
669 17-04-2019 22:00:00 10.36667 C 8 g/m*3 10.37 C 0 km/h
670 17-04-2019 23:00:00 9.375 C 7.68 g/m*3 9.38 C 0 km/h
671 18-04-2019 00:00:00 8.70833 C 7.58 g/m*3 8.71 C 0 km/h
672 18-04-2019 01:00:00 8.75833 C 7.65 g/m*3 8.76 C 0 km/h
673 18-04-2019 02:00:00 8.55 C 7.51 g/m*3 8.55 C 0 km/h
674 18-04-2019 03:00:00 8.01667 C 7.15 g/m*3 8.02 C 0 km/h
675 18-04-2019 04:00:00 7.16667 C 6.89 g/m*3 7.17 C 0 km/h
Sensor: Nr:Datum:Temp:Abs-Feuchte:Windchill:Wind:
Aussen-T/F 676 18-04-2019 05:00:00 6.875 C 6.9 g/m*3 6.88 C 0 km/h
677 18-04-2019 06:00:00 6.76667 C 6.9 g/m*3 6.77 C 0 km/h
678 18-04-2019 07:00:00 7.44167 C 7.08 g/m*3 7.44 C 0 km/h
679 18-04-2019 08:00:00 8.475 C 7.49 g/m*3 8.48 C 0 km/h
680 18-04-2019 09:00:00 9.88333 C 7.78 g/m*3 9.88 C 2 km/h
681 18-04-2019 10:00:00 12.95 C 8.06 g/m*3 12.95 C 7.38333 km/h
682 18-04-2019 11:00:00 16.38333 C 7.92 g/m*3 16.38 C 10.60833 km/h
683 18-04-2019 12:00:00 17.65833 C 7.83 g/m*3 17.66 C 12.20833 km/h
684 18-04-2019 13:00:00 18.76667 C 7.61 g/m*3 18.77 C 12.76667 km/h
685 18-04-2019 14:00:00 19.91667 C 7.29 g/m*3 19.92 C 15.03333 km/h
686 18-04-2019 15:00:00 21.35 C 7.23 g/m*3 21.35 C 14.63333 km/h
687 18-04-2019 16:00:00 22.525 C 6.83 g/m*3 22.53 C 13.7 km/h
688 18-04-2019 17:00:00 23.375 C 6.88 g/m*3 23.38 C 12.35833 km/h
689 18-04-2019 18:00:00 23.40833 C 6.89 g/m*3 23.41 C 10.48333 km/h
690 18-04-2019 19:00:00 22.28333 C 7.18 g/m*3 22.28 C 6.04167 km/h
691 18-04-2019 20:00:00 18.05833 C 8.09 g/m*3 18.06 C 4 km/h
692 18-04-2019 21:00:00 15.33333 C 7.77 g/m*3 15.33 C 4.8 km/h
693 18-04-2019 22:00:00 14.23333 C 7.54 g/m*3 14.23 C 4.8 km/h
694 18-04-2019 23:00:00 13.08333 C 7.44 g/m*3 13.08 C 2.4 km/h
695 19-04-2019 00:00:00 11.55833 C 7.45 g/m*3 11.56 C 0 km/h
696 19-04-2019 01:00:00 10.70833 C 7.37 g/m*3 10.71 C 0.26667 km/h
697 19-04-2019 02:00:00 11.01667 C 7.17 g/m*3 11.02 C 3.33333 km/h
698 19-04-2019 03:00:00 10.29167 C 7.05 g/m*3 10.29 C 1.86667 km/h
699 19-04-2019 04:00:00 9.61667 C 6.99 g/m*3 9.62 C 0.13333 km/h
700 19-04-2019 05:00:00 8.24167 C 6.84 g/m*3 8.24 C 0 km/h
Sensor: Nr:Datum:Temp:Abs-Feuchte:Windchill:Wind:
Aussen-T/F 701 19-04-2019 06:00:00 7.04167 C 6.51 g/m*3 7.04 C 0 km/h
702 19-04-2019 07:00:00 6.65 C 6.58 g/m*3 6.65 C 0 km/h
703 19-04-2019 08:00:00 6.85 C 6.8 g/m*3 6.85 C 0 km/h
704 19-04-2019 09:00:00 8.975 C 7.61 g/m*3 8.98 C 0.66667 km/h
705 19-04-2019 10:00:00 13.525 C 7.82 g/m*3 13.53 C 7.66667 km/h
706 19-04-2019 11:00:00 17.95833 C 7.47 g/m*3 17.96 C 14.1 km/h
707 19-04-2019 12:00:00 19.9 C 7.13 g/m*3 19.9 C 13.7 km/h
708 19-04-2019 13:00:00 21.36667 C 6.41 g/m*3 21.37 C 12.35 km/h
709 19-04-2019 14:00:00 22.44167 C 6.24 g/m*3 22.44 C 15.43333 km/h
710 19-04-2019 15:00:00 23.675 C 5.75 g/m*3 23.68 C 14.63333 km/h
711 19-04-2019 16:00:00 24.89167 C 5.51 g/m*3 24.89 C 13.825 km/h
712 19-04-2019 17:00:00 25.28333 C 5.26 g/m*3 25.28 C 12.76667 km/h
713 19-04-2019 18:00:00 25.50833 C 5.29 g/m*3 25.51 C 9.83333 km/h
714 19-04-2019 19:00:00 24.25 C 5.77 g/m*3 24.25 C 4.95833 km/h
715 19-04-2019 20:00:00 19.21667 C 6.74 g/m*3 19.22 C 4.66667 km/h
716 19-04-2019 21:00:00 15.875 C 6.68 g/m*3 15.88 C 2.93333 km/h
717 19-04-2019 22:00:00 13.33333 C 6.74 g/m*3 13.33 C 0.8 km/h
718 19-04-2019 23:00:00 11.73333 C 6.73 g/m*3 11.73 C 1.2 km/h
719 20-04-2019 00:00:00 10.40833 C 6.81 g/m*3 10.41 C 0.4 km/h
720 20-04-2019 01:00:00 9.45833 C 6.91 g/m*3 9.46 C 0 km/h
721 20-04-2019 02:00:00 8.55833 C 6.93 g/m*3 8.56 C 0 km/h
722 20-04-2019 03:00:00 7.64167 C 6.79 g/m*3 7.64 C 0 km/h
723 20-04-2019 04:00:00 6.85 C 6.68 g/m*3 6.85 C 0 km/h
724 20-04-2019 05:00:00 6.23333 C 6.58 g/m*3 6.23 C 0 km/h
725 20-04-2019 06:00:00 5.775 C 6.48 g/m*3 5.78 C 0 km/h
Sensor: Nr:Datum:Temp:Abs-Feuchte:Windchill:Wind:
Aussen-T/F 726 20-04-2019 07:00:00 5.85833 C 6.61 g/m*3 5.86 C 0.13333 km/h
727 20-04-2019 08:00:00 6.48333 C 6.92 g/m*3 6.48 C 0 km/h
728 20-04-2019 09:00:00 8.16667 C 7.71 g/m*3 8.17 C 0 km/h
729 20-04-2019 10:00:00 11.68333 C 8.74 g/m*3 11.68 C 1.33333 km/h
730 20-04-2019 11:00:00 16.725 C 9.1 g/m*3 16.73 C 3.46667 km/h
731 20-04-2019 12:00:00 20.225 C 8.22 g/m*3 20.23 C 6.7 km/h
732 20-04-2019 13:00:00 22.05 C 7.07 g/m*3 22.05 C 10.61667 km/h
733 20-04-2019 14:00:00 23.275 C 6.04 g/m*3 23.28 C 11.95 km/h
734 20-04-2019 15:00:00 24.25833 C 6.13 g/m*3 24.26 C 11.96667 km/h
735 20-04-2019 16:00:00 25.21667 C 6.21 g/m*3 25.22 C 12.36667 km/h
736 20-04-2019 17:00:00 25.30833 C 5.89 g/m*3 25.31 C 14.1 km/h
737 20-04-2019 18:00:00 25.39167 C 5.55 g/m*3 25.39 C 10.89167 km/h
738 20-04-2019 19:00:00 24.575 C 6.03 g/m*3 24.58 C 5.5 km/h
739 20-04-2019 20:00:00 19.875 C 7.41 g/m*3 19.88 C 3.6 km/h
740 20-04-2019 21:00:00 16.175 C 7.52 g/m*3 16.18 C 0.66667 km/h
741 20-04-2019 22:00:00 13.81667 C 7.54 g/m*3 13.82 C 0 km/h
742 20-04-2019 23:00:00 12.90833 C 7.4 g/m*3 12.91 C 0 km/h

Maximal/Minimal-Werte vom 21.03.2019 - 20.04.2019

Sensor Min Max Avg
Temp
(Aussen-T/F)
0.2 °C
21-03-2019  06:45:00
25.8 °C
19-04-2019  18:05:00
9.17 °C
Abs-Feuchte
(Aussen-T/F)
3.64 g/m*3
12-04-2019  17:00:00
10.95 g/m*3
31-03-2019  17:00:00
6.69 g/m*3
Windchill
(Aussen-T/F)
0.33 C
21-03-2019  06:00:00
25.51 C
19-04-2019  18:00:00
8.94 C

Die Daten stammen von einer Davis Vantage Pro 2 Wetter-Station und werden unter Linux mit der Software wview2wettercgi und aufbereitet. Alle Angaben erfolgen ohne Gewähr für ihre Vollständigkeit oder Richtigkeit.
Kontakt: Rainer Krienke krienke@uni-koblenz.de . Meine Webseiten an der Uni Koblenz oder privat.
Version: $Revision: 0.78 $